Atmospheric History
02/08/2018 18:17  to  2/9/2018 18:17
Change End Date:
To complete the export process:
1) Select all of the data below
2) Copy the data to the clipboard
3) Open a word processor such as Notepad
4) Paste the data into the word processor
5) Save the file

Date/Time (MST), AirTemp, RH, Dewpoint ,AvgWindSpeed, GustWindSpeed, WindDirection, PrecipType, PrecipIntensity, PrecipAccumulation, PrecipRate
02/09/2018 18:15, 13, 80, 8 ,1, 1, S, None, None, ,  
02/09/2018 18:11, 13, 78, 8 ,0, 1, SE, None, None, ,  
02/09/2018 18:01, 14, 75, 7 ,0, 1, N, None, None, ,  
02/09/2018 17:51, 15, 74, 8 ,0, 2, NE, None, None, ,  
02/09/2018 17:45, 15, 72, 8 ,0, 4, NW, None, None, ,  
02/09/2018 17:41, 15, 71, 8 ,0, 4, NW, None, None, ,  
02/09/2018 17:31, 16, 69, 8 ,3, 5, NW, None, None, ,  
02/09/2018 17:21, 16, 68, 8 ,4, 6, NW, None, None, ,  
02/09/2018 17:15, 17, 67, 8 ,3, 6, NW, None, None, ,  
02/09/2018 17:10, 17, 64, 7 ,4, 5, NW, None, None, ,  
02/09/2018 17:00, 18, 62, 7 ,2, 3, NW, None, None, ,  
02/09/2018 16:50, 18, 54, 5 ,1, 1, NW, None, None, ,  
02/09/2018 16:45, 19, 53, 5 ,0, 1, NW, None, None, ,  
02/09/2018 16:40, 18, 54, 5 ,0, 1, NW, None, None, ,  
02/09/2018 16:30, 19, 51, 4 ,0, 2, SE, None, None, ,  
02/09/2018 16:20, 19, 51, 4 ,1, 2, S, None, None, ,  
02/09/2018 16:15, 19, 53, 5 ,1, 2, S, None, None, ,  
02/09/2018 16:10, 19, 53, 5 ,1, 3, SE, None, None, ,  
02/09/2018 16:00, 19, 53, 4 ,1, 4, SW, None, None, ,  
02/09/2018 15:50, 18, 52, 4 ,1, 6, S, None, None, ,  
02/09/2018 15:45, 19, 53, 4 ,3, 6, S, None, None, ,  
02/09/2018 15:40, 19, 55, 5 ,3, 6, S, None, None, ,  
02/09/2018 15:30, 19, 55, 6 ,2, 4, SE, None, None, ,  
02/09/2018 15:20, 19, 51, 4 ,2, 6, SE, None, None, ,  
02/09/2018 15:15, 19, 48, 3 ,2, 6, SE, None, None, ,  
02/09/2018 15:10, 19, 51, 4 ,4, 5, SE, None, None, ,  
02/09/2018 15:00, 19, 49, 3 ,4, 6, S, None, None, ,  
02/09/2018 14:50, 17, 53, 3 ,4, 9, SE, None, None, ,  
02/09/2018 14:45, 17, 53, 3 ,4, 9, SE, None, None, ,  
02/09/2018 14:40, 17, 56, 4 ,5, 7, SE, None, None, ,  
02/09/2018 14:30, 17, 60, 5 ,4, 4, SE, None, None, ,  
02/09/2018 14:19, 17, 54, 3 ,2, 6, SE, None, None, ,  
02/09/2018 14:15, 17, 55, 3 ,2, 6, S, None, None, ,  
02/09/2018 14:09, 17, 55, 3 ,3, 5, SE, None, None, ,  
02/09/2018 13:59, 16, 52, 2 ,3, 7, E, None, None, ,  
02/09/2018 13:49, 15, 54, 2 ,6, 9, E, None, None, ,  
02/09/2018 13:45, 16, 54, 2 ,4, 9, SE, None, None, ,  
02/09/2018 13:39, 16, 52, 2 ,2, 7, SE, None, None, ,  
02/09/2018 13:29, 15, 52, 1 ,6, 9, SE, None, None, ,  
02/09/2018 13:19, 15, 52, 1 ,7, 11, SE, None, None, ,  
02/09/2018 13:15, 14, 55, 1 ,6, 11, SE, None, None, ,  
02/09/2018 13:09, 14, 54, 1 ,7, 10, SE, None, None, ,  
02/09/2018 12:59, 13, 56, 1 ,6, 11, E, None, None, ,  
02/09/2018 12:49, 13, 54, 0 ,7, 12, SE, None, None, ,  
02/09/2018 12:45, 13, 53, -1 ,6, 12, SE, None, None, ,  
02/09/2018 12:39, 13, 54, 0 ,7, 12, SE, None, None, ,  
02/09/2018 12:29, 13, 54, -1 ,9, 12, SE, None, None, ,  
02/09/2018 12:19, 13, 53, -1 ,8, 14, SE, None, None, ,  
02/09/2018 12:15, 12, 52, -2 ,11, 14, SE, None, None, ,  
02/09/2018 12:09, 13, 53, -1 ,9, 15, SE, None, None, ,  
02/09/2018 11:59, 12, 51, -2 ,11, 14, SE, None, None, ,  
02/09/2018 11:48, 12, 54, -2 ,7, 16, SE, None, None, ,  
02/09/2018 11:45, 11, 54, -2 ,10, 16, SE, None, None, ,  
02/09/2018 11:38, 11, 54, -3 ,11, 17, SE, None, None, ,  
02/09/2018 11:28, 11, 54, -3 ,9, 12, SE, None, None, ,  
02/09/2018 11:18, 10, 56, -3 ,7, 12, SE, None, None, ,  
02/09/2018 11:15, 10, 56, -3 ,9, 12, SE, None, None, ,  
02/09/2018 11:08, 10, 59, -1 ,4, 8, E, None, None, ,  
02/09/2018 10:58, 9, 60, -2 ,5, 11, S, None, None, ,  
02/09/2018 10:48, 7, 62, -3 ,7, 9, S, None, None, ,  
02/09/2018 10:45, 6, 64, -3 ,6, 9, S, None, None, ,  
02/09/2018 10:38, 6, 64, -3 ,6, 9, S, None, None, ,  
02/09/2018 10:28, 6, 63, -4 ,4, 9, SE, None, None, ,  
02/09/2018 10:18, 6, 62, -4 ,6, 11, SE, None, None, ,  
02/09/2018 10:15, 6, 62, -4 ,4, 9, SE, None, None, ,  
02/09/2018 10:08, 5, 64, -5 ,6, 9, SE, None, None, ,  
02/09/2018 09:58, 5, 62, -5 ,4, 8, SE, None, None, ,  
02/09/2018 09:48, 4, 62, -6 ,2, 9, SE, None, None, ,  
02/09/2018 09:45, 5, 61, -6 ,3, 6, SE, None, None, ,  
02/09/2018 09:38, 4, 62, -7 ,4, 9, E, None, None, ,  
02/09/2018 09:28, 2, 64, -7 ,3, 6, E, None, None, ,  
02/09/2018 09:18, 2, 64, -7 ,2, 6, E, None, None, ,  
02/09/2018 09:15, 2, 64, -7 ,2, 6, E, None, None, ,  
02/09/2018 09:08, 1, 67, -7 ,4, 6, SE, None, None, ,  
02/09/2018 08:58, 1, 67, -8 ,3, 13, E, None, None, ,  
02/09/2018 08:48, 1, 68, -7 ,4, 5, SE, None, None, ,  
02/09/2018 08:45, 1, 67, -7 ,4, 6, SE, None, None, ,  
02/09/2018 08:37, 1, 67, -7 ,4, 9, SE, None, None, ,  
02/09/2018 08:27, 1, 70, -7 ,1, 6, E, None, None, ,  
02/09/2018 08:17, 0, 70, -7 ,1, 6, E, None, None, ,  
02/09/2018 08:15, 0, 70, -7 ,1, 6, SE, None, None, ,  
02/09/2018 08:07, 1, 69, -7 ,5, 7, SE, None, None, ,  
02/09/2018 07:57, 1, 67, -8 ,4, 9, SE, None, None, ,  
02/09/2018 07:47, 1, 66, -8 ,6, 12, SE, None, None, ,  
02/09/2018 07:45, 1, 66, -7 ,8, 12, S, None, None, ,  
02/09/2018 07:37, 2, 63, -8 ,8, 12, SE, None, None, ,  
02/09/2018 07:27, 2, 61, -8 ,9, 14, SE, None, None, ,  
02/09/2018 07:17, 2, 66, -7 ,8, 12, SE, None, None, ,  
02/09/2018 07:15, 2, 67, -7 ,7, 10, SE, None, None, ,  
02/09/2018 07:07, 2, 64, -7 ,7, 11, SE, None, None, ,  
02/09/2018 06:57, 2, 63, -7 ,9, 14, SE, Yes, , ,  
02/09/2018 06:47, 3, 58, -9 ,9, 17, SE, None, None, ,  
02/09/2018 06:45, 3, 58, -9 ,9, 17, SE, None, None, ,  
02/09/2018 06:37, 3, 60, -8 ,11, 15, SE, None, None, ,  
02/09/2018 06:27, 3, 59, -8 ,14, 17, SE, None, None, ,  
02/09/2018 06:17, 3, 61, -7 ,11, 14, SE, None, None, ,  
02/09/2018 06:15, 3, 61, -7 ,11, 15, SE, None, None, ,  
02/09/2018 06:07, 3, 61, -7 ,12, 19, SE, None, None, ,  
02/09/2018 05:57, 3, 60, -8 ,12, 18, SE, None, None, ,  
02/09/2018 05:47, 3, 59, -8 ,13, 17, SE, None, None, ,  
02/09/2018 05:45, 3, 60, -8 ,12, 16, SE, None, None, ,  
02/09/2018 05:37, 3, 61, -8 ,11, 17, SE, None, None, ,  
02/09/2018 05:27, 3, 62, -7 ,11, 19, SE, None, None, ,  
02/09/2018 05:16, 3, 63, -7 ,11, 17, SE, None, None, ,  
02/09/2018 05:15, 3, 63, -7 ,12, 17, SE, None, None, ,  
02/09/2018 05:06, 3, 67, -6 ,10, 17, SE, None, None, ,  
02/09/2018 04:56, 3, 67, -6 ,13, 17, SE, None, None, ,  
02/09/2018 04:46, 3, 70, -5 ,11, 17, SE, None, None, ,  
02/09/2018 04:45, 3, 70, -5 ,11, 17, SE, Yes, , ,  
02/09/2018 04:36, 3, 70, -5 ,12, 17, SE, None, None, ,  
02/09/2018 04:26, 3, 68, -5 ,12, 17, SE, None, None, ,  
02/09/2018 04:16, 3, 66, -5 ,12, 17, SE, Yes, , ,  
02/09/2018 04:15, 3, 66, -5 ,12, 17, SE, Yes, , ,  
02/09/2018 04:06, 3, 66, -5 ,11, 14, SE, None, None, ,  
02/09/2018 03:56, 3, 66, -5 ,7, 12, SE, None, None, ,  
02/09/2018 03:46, 4, 64, -6 ,11, 15, SE, None, None, ,  
02/09/2018 03:45, 4, 64, -6 ,10, 14, SE, None, None, ,  
02/09/2018 03:36, 3, 66, -5 ,8, 13, SE, None, None, ,  
02/09/2018 03:26, 3, 66, -5 ,10, 16, SE, Yes, , ,  
02/09/2018 03:16, 4, 66, -5 ,12, 15, SE, None, None, ,  
02/09/2018 03:15, 4, 67, -5 ,12, 15, SE, None, None, ,  
02/09/2018 03:06, 4, 67, -5 ,9, 14, SE, None, None, ,  
02/09/2018 02:56, 3, 69, -5 ,8, 11, SE, None, None, ,  
02/09/2018 02:46, 3, 70, -4 ,9, 13, SE, None, None, ,  
02/09/2018 02:45, 3, 70, -4 ,10, 13, SE, None, None, ,  
02/09/2018 02:36, 3, 72, -4 ,8, 12, SE, Yes, , ,  
02/09/2018 02:26, 3, 75, -3 ,8, 11, SE, Yes, , ,  
02/09/2018 02:16, 3, 74, -3 ,6, 14, SE, Yes, , ,  
02/09/2018 02:15, 3, 74, -3 ,7, 14, SE, Yes, , ,  
02/09/2018 02:06, 3, 73, -4 ,7, 12, SE, Yes, , ,  
02/09/2018 01:56, 3, 73, -4 ,7, 14, SE, Yes, , ,  
02/09/2018 01:45, 3, 72, -4 ,9, 14, SE, Yes, , ,  
02/09/2018 01:45, 3, 72, -4 ,9, 14, SE, Yes, , ,  
02/09/2018 01:35, 3, 74, -3 ,8, 19, SE, None, None, ,  
02/09/2018 01:25, 3, 76, -3 ,9, 12, SE, Yes, , ,  
02/09/2018 01:15, 3, 77, -3 ,7, 12, SE, Yes, , ,  
02/09/2018 01:15, 3, 77, -3 ,7, 12, SE, Yes, , ,  
02/09/2018 01:05, 3, 77, -3 ,10, 14, SE, Yes, , ,  
02/09/2018 00:55, 3, 76, -3 ,12, 16, SE, Yes, , ,  
02/09/2018 00:45, 3, 76, -3 ,9, 12, SE, Yes, , ,  
02/09/2018 00:45, 3, 76, -3 ,9, 12, SE, Yes, , ,  
02/09/2018 00:35, 3, 76, -3 ,6, 10, SE, Yes, , ,  
02/09/2018 00:25, 3, 72, -3 ,8, 12, SE, Yes, , ,  
02/09/2018 00:15, 4, 75, -2 ,8, 11, SE, Yes, , ,  
02/09/2018 00:15, 4, 76, -2 ,9, 11, SE, Yes, , ,  
02/09/2018 00:05, 3, 76, -3 ,5, 9, SE, Yes, , ,  
02/08/2018 23:55, 4, 73, -3 ,6, 15, SE, Yes, , ,  
02/08/2018 23:45, 3, 75, -3 ,6, 12, SE, Yes, , ,  
02/08/2018 23:45, 3, 75, -3 ,6, 12, SE, Yes, , ,  
02/08/2018 23:35, 4, 73, -3 ,7, 13, SE, Yes, , ,  
02/08/2018 23:25, 4, 73, -3 ,8, 14, SE, Yes, , ,  
02/08/2018 23:15, 4, 73, -3 ,10, 18, SE, None, None, ,  
02/08/2018 23:15, 4, 73, -3 ,11, 18, SE, Yes, , ,  
02/08/2018 23:04, 4, 70, -3 ,10, 17, E, Yes, , ,  
02/08/2018 22:54, 4, 74, -2 ,6, 17, NE, Yes, , ,  
02/08/2018 22:45, 4, 75, -3 ,7, 12, SE, Yes, , ,  
02/08/2018 22:44, 4, 75, -2 ,7, 12, SE, Yes, , ,  
02/08/2018 22:34, 4, 76, -2 ,10, 15, SE, Yes, , ,  
02/08/2018 22:24, 4, 78, -2 ,8, 12, E, Yes, , ,  
02/08/2018 22:15, 4, 79, -1 ,6, 10, SE, Yes, , ,  
02/08/2018 22:14, 4, 78, -1 ,7, 10, SE, Yes, , ,  
02/08/2018 22:04, 4, 78, -1 ,4, 15, SE, Yes, , ,  
02/08/2018 21:54, 4, 78, -1 ,9, 12, SE, Yes, , ,  
02/08/2018 21:45, 4, 78, -1 ,6, 13, SE, Yes, , ,  
02/08/2018 21:44, 4, 78, -1 ,8, 13, SE, Yes, , ,  
02/08/2018 21:34, 4, 74, -2 ,12, 17, SE, Yes, , ,  
02/08/2018 21:24, 4, 80, -1 ,9, 12, SE, Yes, , ,  
02/08/2018 21:15, 4, 76, -1 ,7, 14, SE, Yes, , ,  
02/08/2018 21:14, 4, 78, -1 ,6, 14, SE, Yes, , ,  
02/08/2018 21:04, 4, 81, -1 ,6, 12, E, Yes, , ,  
02/08/2018 20:54, 4, 76, -1 ,6, 12, NE, Yes, , ,  
02/08/2018 20:45, 4, 80, -1 ,8, 12, E, Yes, , ,  
02/08/2018 20:44, 4, 80, 0 ,7, 12, E, Yes, , ,  
02/08/2018 20:34, 5, 78, -1 ,10, 16, SE, Yes, , ,  
02/08/2018 20:24, 6, 76, 0 ,12, 18, SE, Yes, , ,  
02/08/2018 20:15, 5, 73, -1 ,8, 12, SE, Yes, , ,  
02/08/2018 20:14, 5, 71, -2 ,7, 9, SE, Yes, , ,  
02/08/2018 20:04, 6, 63, -4 ,9, 19, S, Yes, , ,  
02/08/2018 19:53, 6, 58, -5 ,13, 19, SE, None, None, ,  
02/08/2018 19:45, 6, 58, -5 ,12, 21, SE, None, None, ,  
02/08/2018 19:43, 6, 56, -6 ,12, 21, SE, None, None, ,  
02/08/2018 19:33, 6, 60, -5 ,11, 17, SE, None, None, ,  
02/08/2018 19:23, 6, 60, -5 ,9, 19, SE, None, None, ,  
02/08/2018 19:15, 6, 61, -4 ,6, 20, SE, None, None, ,  
02/08/2018 19:13, 6, 61, -4 ,7, 20, SE, None, None, ,  
02/08/2018 19:03, 6, 66, -3 ,7, 14, SE, Yes, , ,  
02/08/2018 18:53, 6, 66, -3 ,12, 19, SE, None, None, ,  
02/08/2018 18:45, 6, 71, -2 ,11, 17, SE, Yes, , ,  
02/08/2018 18:43, 6, 71, -2 ,9, 16, SE, Yes, , ,  
02/08/2018 18:33, 6, 66, -3 ,9, 25, SE, Yes, , ,  
02/08/2018 18:23, 5, 71, -2 ,11, 22, E, Yes, , ,  
Change End Date:

Copyright © 1998-2015 Vaisala, Inc.
All Rights Reserved
Send comments about the data to:
SCAN Web ® is a registered trademark of Vaisala, Inc.
SCAN Web Version 6.0